EW5462 Weather Reports


Display with metric or nautical units.
time (UTC)temp
F
wind
direction
speed
MPH
gust
MPH
rain 1hr
in
rain 24hr
in
rain mn
in
humidity
%
barometer
mb
20260503192216 95 170 11.0 16.0 0.00 0.00 0.00 20 1006.5
20260503191216 95 164 9.0 13.0 0.00 0.00 0.00 21 1006.7
20260503190217 95 161 10.0 14.0 0.00 0.00 0.00 21 1006.7
20260503185217 94 168 11.0 15.0 0.00 0.00 0.00 20 1006.9
20260503184216 93 150 11.0 13.0 0.00 0.00 0.00 20 1007.0
20260503183216 94 156 12.0 15.0 0.00 0.00 0.00 20 1007.0
20260503182216 93 153 13.0 17.0 0.00 0.00 0.00 20 1007.2
20260503181216 92 146 14.0 18.0 0.00 0.00 0.00 20 1007.3
20260503180216 92 158 14.0 18.0 0.00 0.00 0.00 20 1007.4
20260503175217 91 156 13.0 16.0 0.00 0.00 0.00 20 1007.4
20260503174216 91 145 14.0 17.0 0.00 0.00 0.00 20 1007.4
20260503173217 90 152 13.0 17.0 0.00 0.00 0.00 21 1007.5
20260503172217 90 154 13.0 17.0 0.00 0.00 0.00 22 1007.6
20260503171217 89 156 11.0 15.0 0.00 0.00 0.00 22 1007.7
20260503170217 88 150 13.0 18.0 0.00 0.00 0.00 23 1007.8
20260503160217 85 155 10.0 14.0 0.00 0.00 0.00 20 1007.9
20260503150216 82 148 9.0 12.0 0.00 0.00 0.00 21 1007.5
20260503131217 72 177 3.0 4.0 0.00 0.00 0.00 25 1007.0
20260503130217 72 176 4.0 4.0 0.00 0.00 0.00 25 1006.8
20260503120217 72 170 2.0 2.0 0.00 0.00 0.00 23 1006.6
20260503110216 72 0.0 0.0 0.00 0.00 0.00 25 1006.4
20260503100117 75 0.0 0.0 0.00 0.00 0.00 25 1006.9
20260503081217 80 149 6.0 6.0 0.00 0.00 0.00 20 1007.2
20260503080216 80 145 5.0 7.0 0.00 0.00 0.00 20 1007.2
20260503072217 78 142 5.0 6.0 0.00 0.00 0.00 24 1007.5
20260503070216 77 142 5.0 6.0 0.00 0.00 0.00 26 1007.7
20260503060217 79 127 2.0 2.0 0.00 0.00 0.00 26 1007.6
20260503054216 79 136 3.0 4.0 0.00 0.00 0.00 24 1007.6
20260503053216 79 130 3.0 4.0 0.00 0.00 0.00 24 1007.5
20260503052217 79 135 4.0 6.0 0.00 0.00 0.00 22 1007.6
20260503051216 80 134 4.0 5.0 0.00 0.00 0.00 20 1007.6
20260503050217 80 130 3.0 5.0 0.00 0.00 0.00 20 1007.5
20260503045217 78 125 5.0 7.0 0.00 0.00 0.00 22 1007.5
20260503044217 80 0.0 0.0 0.00 0.00 0.00 21 1007.4
20260503043216 81 0.0 0.0 0.00 0.00 0.00 21 1007.3
20260503042217 81 0.0 0.0 0.00 0.00 0.00 21 1007.0
20260503040217 83 0.0 0.0 0.00 0.00 0.00 20 1006.7
20260503035216 86 232 3.0 4.0 0.00 0.00 0.00 17 1006.6
20260503034217 86 235 5.0 6.0 0.00 0.00 0.00 17 1006.6
20260503033217 86 235 4.0 5.0 0.00 0.00 0.00 18 1006.4
20260503032917 86 239 4.0 6.0 0.00 0.00 0.00 18 1006.4
20260503031917 87 240 4.0 5.0 0.00 0.00 0.00 18 1006.3
20260503030917 88 241 4.0 5.0 0.00 0.00 0.00 17 1006.1
20260503025917 89 231 5.0 6.0 0.00 0.00 0.00 16 1005.9
20260503025417 89 231 4.0 6.0 0.00 0.00 0.00 16 1005.9
20260503024416 87 216 4.0 5.0 0.00 0.00 0.00 18 1005.7
20260503023416 91 248 4.0 5.0 0.00 0.00 0.00 15 1005.4
20260503022417 91 255 3.0 4.0 0.00 0.00 0.00 14 1005.3
20260503021417 92 242 3.0 4.0 0.00 0.00 0.00 14 1005.2
20260503020517 92 257 2.0 3.0 0.00 0.00 0.00 14 1005.2
20260503015516 93 240 3.0 4.0 0.00 0.00 0.00 13 1005.2
20260503014516 94 225 3.0 4.0 0.00 0.00 0.00 12 1005.2
20260503013517 94 189 1.0 3.0 0.00 0.00 0.00 12 1005.1
20260503012517 95 214 2.0 3.0 0.00 0.00 0.00 12 1005.1
20260503011516 96 223 5.0 7.0 0.00 0.00 0.00 11 1005.0
20260503010517 97 215 4.0 6.0 0.00 0.00 0.00 12 1005.2
20260503005517 97 190 2.0 3.0 0.00 0.00 0.00 12 1005.1
20260503004516 97 262 4.0 4.0 0.00 0.00 0.00 11 1005.1
20260503004417 98 271 5.0 6.0 0.00 0.00 0.00 10 1005.1
20260503003917 98 295 5.0 6.0 0.00 0.00 0.00 10 1005.2
20260503002916 98 250 2.0 4.0 0.00 0.00 0.00 10 1005.3
20260503001917 98 231 6.0 7.0 0.00 0.00 0.00 10 1005.3
20260503000916 99 259 7.0 8.0 0.00 0.00 0.00 10 1005.4
20260502235917 100 226 5.0 6.0 0.00 0.00 0.00 10 1005.5
20260502234916 99 266 6.0 8.0 0.00 0.00 0.00 10 1005.5
20260502233916 99 215 8.0 11.0 0.00 0.00 0.00 11 1005.6
20260502232917 98 248 6.0 8.0 0.00 0.00 0.00 10 1005.7
20260502231916 98 233 5.0 6.0 0.00 0.00 0.00 10 1005.7
20260502230916 99 259 7.0 10.0 0.00 0.00 0.00 10 1005.7
20260502224916 99 287 7.0 10.0 0.00 0.00 0.00 11 1006.0
20260502223917 99 274 6.0 8.0 0.00 0.00 0.00 11 1006.1
20260502222917 98 239 6.0 8.0 0.00 0.00 0.00 11 1006.3
20260502222017 99 225 8.0 12.0 0.00 0.00 0.00 12 1006.3
20260502221017 98 226 4.0 6.0 0.00 0.00 0.00 12 1006.5
20260502220016 97 288 0.0 2.0 0.00 0.00 0.00 11 1006.7
20260502215017 98 33 3.0 4.0 0.00 0.00 0.00 12 1006.7
20260502214517 97 266 0.0 2.0 0.00 0.00 0.00 11 1006.7
20260502213516 97 28 4.0 6.0 0.00 0.00 0.00 10 1006.9
20260502212517 98 231 0.0 2.0 0.00 0.00 0.00 11 1007.2
20260502211516 96 202 2.0 8.0 0.00 0.00 0.00 11 1007.4
20260502205916 98 36 5.0 7.0 0.00 0.00 0.00 11 1007.6
20260502204917 97 21 2.0 3.0 0.00 0.00 0.00 11 1007.7
20260502204417 97 28 4.0 6.0 0.00 0.00 0.00 10 1007.8
20260502203416 98 17 5.0 7.0 0.00 0.00 0.00 10 1007.9
20260502202417 98 79 1.0 2.0 0.00 0.00 0.00 12 1008.1
20260502201417 95 23 2.0 3.0 0.00 0.00 0.00 11 1008.3
20260502200416 96 329 3.0 5.0 0.00 0.00 0.00 12 1008.4
20260502195417 96 352 1.0 2.0 0.00 0.00 0.00 11 1008.6
20260502194417 95 50 0.0 2.0 0.00 0.00 0.00 11 1008.7
20260502193416 96 148 3.0 6.0 0.00 0.00 0.00 13 1008.8